www.pogodaiklimat.ru

Погода и климат >> Архив погоды >> Марокко >> Таза


ПОГОДА в Тазе

  • Прогноз погоды в Тазе
  • Монитор погоды в Тазе

АРХИВ ПОГОДЫ в Тазе

Время (UTC), дата Ветер
(напр.,м/с)
 
Видим.   Явления Облачность Т
(С)
Тd
(С)
f
(%)
Тe
(С)
Тes
(С)
Комфортность P
(гПа)
Po
(гПа)
Тmin
(С)
Tmax
(С)
R
(мм)
R24
(мм)
S
(см)
06 12.06 штиль 0 15 км 8/0
[Ac und]
+16.0 +10.4 69 +16 +16 1011.7 953.2 +15.0
09 12.06 В 4 15 км 4/0
[Ci sp]
+23.2 +9.3 41 +25 +32 комфорт 1009.8 952.8
12 12.06 В 4 15 км ясно +28.6 +6.8 25 +28 +42 жарко 1007.2 951.3
15 12.06 В 4 15 км ясно +32.1 +7.4 22 +31 +40 жарко 1004.0 948.9
18 12.06 В 6 15 км ясно +29.1 +10.1 31 +29 +30 жарко 1004.9 949.3 +33.1
06 13.06 В 4 15 км ясно +16.7 +13.7 82 +16 +17 1009.2 951.0 +16.2
09 13.06 В 8 15 км ясно +22.6 +12.5 53 +25 +27 комфорт 1007.9 950.9
12 13.06 В 10 15 км ясно +27.0 +13.0 42 +29 +30 жарко 1006.4 950.4
15 13.06 В 4 15 км 3/3 800 м
[Cu med, cong]
+31.5 +13.0 32 +32 +39 жарко 1003.5 948.4
18 13.06 З 12 10 км 9/9 800 м
[Cb cap]
+25.0 +13.9 50 +27 +27 жарко 1006.3 949.9 +31.9
06 14.06 штиль 0 10 км 10/10 700 м
[Cu med, cong]
+15.0 +14.1 94 +15 +15 1016.3 957.4 +14.5 6
09 14.06 З 4 15 км 6/6 800 м
[Cu med, cong]
+17.0 +13.9 82 +17 +20 1017.5 959.0
12 14.06 З 4 15 км 6/6 800 м
[Cu med, cong]
+20.0 +13.1 64 +22 +28 комфорт 1016.5 958.6
15 14.06 З 4 15 км ясно +23.6 +12.3 49 +25 +35 комфорт 1015.0 957.8
18 14.06 З 4 15 км ясно +23.0 +11.7 49 +25 +27 комфорт 1014.9 957.6 +24.5
06 15.06 штиль 0 15 км ясно +14.0 +9.2 73 +14 +15 1019.4 960.1 +13.8
09 15.06 штиль 0 15 км ясно +20.6 +9.4 49 +22 +37 комфорт 1017.9 959.9
12 15.06 штиль 0 15 км ясно +28.0 +10.7 34 +29 +57 опасность
солнечного
удара
1014.9 958.5
15 15.06 штиль 0 15 км ясно +32.1 +8.1 23 +31 +50 жарко 1011.6 956.0
18 15.06 штиль 0 15 км ясно +30.0 +8.9 27 +29 +32 жарко 1011.8 955.9 +33.0
06 16.06 штиль 0 15 км ясно +16.5 +8.0 57 +16 +17 1017.0 958.3 +16.0
09 16.06 В 4 15 км 4/4 1200 м
[Sc]
+24.7 +9.0 37 +25 +30 комфорт 1015.9 958.8
12 16.06 В 4 15 км 4/0
[Ci sp]
+29.3 +9.5 29 +29 +42 жарко 1013.9 957.7
15 16.06 штиль 0 15 км 4/0
[Ci sp]
+30.3 +8.6 26 +30 +47 жарко 1012.6 956.7
18 16.06 штиль 0 15 км 4/0
[Ci sp]
+28.5 +8.5 28 +28 +30 жарко 1013.8 957.5 +31.1
06 17.06 штиль 0 15 км ясно +16.4 +9.6 64 +16 +17 1017.5 958.7 +16.1
09 17.06 штиль 0 15 км ясно +24.0 +9.7 40 +25 +41 комфорт 1015.5 958.3
12 17.06 штиль 0 15 км ясно +30.2 +10.0 29 +30 +59 опасность
солнечного
удара
1013.0 957.1
15 17.06 штиль 0 15 км ясно +33.7 +6.4 18 +32 +51 опасность
солнечного
удара
1010.0 954.8
18 17.06 штиль 0 15 км ясно +31.5 +4.2 18 +29 +32 жарко 1009.9 954.3 +34.7
06 18.06 штиль 0 15 км ясно +17.7 +11.8 68 +18 +19 1014.1 955.8 +17.4
09 18.06 З 6 15 км ясно +23.3 +11.2 46 +26 +30 жарко 1014.9 957.6
12 18.06 З 8 15 км ясно +29.1 +12.6 36 +30 +34 жарко 1012.8 956.7
15 18.06 З 10 15 км ясно +31.3 +12.7 32 +32 +33 жарко 1011.3 955.8
18 18.06 З 6 15 км ясно +29.4 +9.7 29 +29 +30 жарко 1011.4 955.4 +32.4

 

Местоположение метеостанции Таза (Марокко): широта 34.22 долгота -4.00 высота над уровнем моря 510 м.

В архиве по умолчанию представлена погода в Тазе за последнюю неделю. Архивные данные за месяц целиком и за предыдущие месяцы, начиная с января 2011 года, Вы можете получить, выбрав интересующий диапазон дат из раскрывающегося списка и нажав кнопку "Ввод!".


*Определитесь, кто Вы:
робот инопланетянин человек

Внимание! Время в таблицах - всемирное. Для получения местного времени необходимо прибавить поправку, которая равна 0 ч.

Смотрите также архив погоды в соседних городах и на ближайших метеорологических станциях:

Погода в Фесе (Марокко) (96 км)
Погода в Эль-Хосейме (Марокко) (108 км)
Погода в Аль-Аруи (Марокко) (123 км)
Погода в Мекнесе (Марокко) (146 км)
Погода в Шавене (Марокко) (152 км)
Погода в Мелилье (Испания) (152 км)
Погода в Мидельте (Марокко) (184 км)
Погода в Тетуане (Марокко) (194 км)
Погода в Уджде (Марокко) (200 км)
Погода в Багнии (Алжир) (214 км)

Пояснения к столбцам:

Ветер - указаны скорость ветра в м/с - средняя за 10 мин, порывы в срок и между сроками (в фигурных скобках) и направление, откуда дует ветер: С - северный, СВ - северо-восточный, В - восточный, ЮВ - юго-восточный, Ю - южный, ЮЗ - юго-западный, З - западный, СЗ - северо-западный.
Видимость - горизонтальная дальность видимости в метрах или километрах. При видимости от 1 до 10 км при отсутствии осадков обычно наблюдается дымка, при ухудшении видимости до 1 км и менее - туман. В сухую погоду видимость может ухудшаться дымом, пылью или мглою.
Явления - указаны атмосферные явления, наблюдавшиеся в срок или в последний час перед сроком; фигурными скобками обозначены явления, наблюдавшиеся между сроками (за 1-3 часа до срока); квадратными скобками обозначены град или гололедные отложения с указанием их диаметра в мм.
Облачность - указаны через наклонную черту общая и нижняя облачность в баллах и высота нижней границы облаков в метрах; квадратными скобками обозначены формы облаков: Ci - перистые, Cs - перисто-слоистые, Cc - перисто-кучевые, Ac - высококучевые, As - высокослоистые, Sc - слоисто-кучевые, Ns - слоисто-дождевые, Cu - кучевые, Cb - кучево-дождевые. Подробнее классификацию облаков см. в Атласе облаков (PDF).
T - Температура воздуха - температура, измеренная на высоте 2 м над землей.
Td - Температура точки росы - температура, при понижении до которой содержащийся в воздухе водяной пар достигнет насыщения.
f - Относительная влажность воздуха - влажноcть воздуха, измеренная на высоте 2 м над землей.
Te - Эффективная температура - температура, которую ощущает одетый по сезону человек в тени. Характеристика душности погоды. При расчете учитывается влияние влажности воздуха и скорости ветра на теплоощущения человека.
Tes - Эффективная температура на солнце - температура, которую ощущает человек, с поправкой на солнечный нагрев. Характеристика знойности погоды. Зависит от высоты солнца над горизонтом, облачности и скорости ветра. Ночью, в пасмурную погоду, а также при ветре 12 м/с и более поправка равна нулю.
P - Атмосферное давление - приведенное к уровню моря атмосферное давление.
Po - Атмосферное давление - измеренное на уровне метеостанции атмосферное давление.
Tmin - Минимальная температура - минимум температуры воздуха на высоте 2 м над землей.
Tmax - Максимальная температура - максимум температуры воздуха на высоте 2 м над землей.
R - Количество осадков - Количество выпавших осадков за период времени, мм. При наведении курсора мыши на число - период времени, за который выпало указанное количество осадков.
R24 - Количество осадков - Количество выпавших осадков за 24 часа, мм.
S - Снежный покров - Высота снежного покрова, см. При наведении курсора мыши на число - состояние снежного покрова и степень покрытия местности в баллах.